Year,Month,Day,Hour,Minute,Value (Times are PST for temperature in C)
2021,06,03,00,00,20.40
2021,06,03,00,01,20.40
2021,06,03,00,02,20.40
2021,06,03,00,03,20.40
2021,06,03,00,04,20.40
2021,06,03,00,05,20.40
2021,06,03,00,06,20.40
2021,06,03,00,07,20.40
2021,06,03,00,08,20.40
2021,06,03,00,09,20.40
2021,06,03,00,10,20.40
2021,06,03,00,11,20.40
2021,06,03,00,12,20.40
2021,06,03,00,13,20.40
2021,06,03,00,14,20.40
2021,06,03,00,15,20.40
2021,06,03,00,16,20.40
2021,06,03,00,17,20.40
2021,06,03,00,18,20.40
2021,06,03,00,19,20.40
2021,06,03,00,20,20.40
2021,06,03,00,21,20.30
2021,06,03,00,22,20.30
2021,06,03,00,23,20.30
2021,06,03,00,24,20.30
2021,06,03,00,25,20.30
2021,06,03,00,26,20.30
2021,06,03,00,27,20.30
2021,06,03,00,28,20.30
2021,06,03,00,29,20.30
2021,06,03,00,30,20.30
2021,06,03,00,31,20.30
2021,06,03,00,32,20.30
2021,06,03,00,33,20.30
2021,06,03,00,34,20.30
2021,06,03,00,35,20.30
2021,06,03,00,36,20.30
2021,06,03,00,37,20.30
2021,06,03,00,38,20.30
2021,06,03,00,39,20.20
2021,06,03,00,40,20.20
2021,06,03,00,41,20.20
2021,06,03,00,42,20.20
2021,06,03,00,43,20.20
2021,06,03,00,44,20.20
2021,06,03,00,45,20.20
2021,06,03,00,46,20.10
2021,06,03,00,47,20.10
2021,06,03,00,48,20.10
2021,06,03,00,49,20.10
2021,06,03,00,50,20.10
2021,06,03,00,51,20.10
2021,06,03,00,52,20.10
2021,06,03,00,53,20.10
2021,06,03,00,54,20.10
2021,06,03,00,55,20.10
2021,06,03,00,56,20.10
2021,06,03,00,57,20.10
2021,06,03,00,58,20.10
2021,06,03,00,59,20.00
2021,06,03,01,00,20.00
2021,06,03,01,01,20.00
2021,06,03,01,02,20.00
2021,06,03,01,03,20.00
2021,06,03,01,04,19.90
2021,06,03,01,05,19.90
2021,06,03,01,06,19.90
2021,06,03,01,07,19.90
2021,06,03,01,08,19.90
2021,06,03,01,09,19.90
2021,06,03,01,10,19.90
2021,06,03,01,11,19.90
2021,06,03,01,12,19.90
2021,06,03,01,13,19.90
2021,06,03,01,14,19.90
2021,06,03,01,15,19.90
2021,06,03,01,16,19.90
2021,06,03,01,17,19.80
2021,06,03,01,18,19.80
2021,06,03,01,19,19.80
2021,06,03,01,20,19.80
2021,06,03,01,21,19.80
2021,06,03,01,22,19.80
2021,06,03,01,23,19.80
2021,06,03,01,24,19.80
2021,06,03,01,25,19.80
2021,06,03,01,26,19.80
2021,06,03,01,27,19.80
2021,06,03,01,28,19.80
2021,06,03,01,29,19.80
2021,06,03,01,30,19.80
2021,06,03,01,31,19.80
2021,06,03,01,32,19.80
2021,06,03,01,33,19.80
2021,06,03,01,34,19.80
2021,06,03,01,35,19.80
2021,06,03,01,36,19.80
2021,06,03,01,37,19.80
2021,06,03,01,38,19.80
2021,06,03,01,39,19.80
2021,06,03,01,40,19.80
2021,06,03,01,41,19.80
2021,06,03,01,42,19.80
2021,06,03,01,43,19.80
2021,06,03,01,44,19.80
2021,06,03,01,45,19.70
2021,06,03,01,46,19.70
2021,06,03,01,47,19.70
2021,06,03,01,48,19.70
2021,06,03,01,49,19.70
2021,06,03,01,50,19.70
2021,06,03,01,51,19.70
2021,06,03,01,52,19.70
2021,06,03,01,53,19.60
2021,06,03,01,54,19.60
2021,06,03,01,55,19.60
2021,06,03,01,56,19.60
2021,06,03,01,57,19.60
2021,06,03,01,58,19.60
2021,06,03,01,59,19.60
2021,06,03,02,00,19.60
2021,06,03,02,01,19.60
2021,06,03,02,02,19.60
2021,06,03,02,03,19.60
2021,06,03,02,04,19.60
2021,06,03,02,05,19.60
2021,06,03,02,06,19.50
2021,06,03,02,07,19.60
2021,06,03,02,08,19.60
2021,06,03,02,09,19.60
2021,06,03,02,10,19.60
2021,06,03,02,11,19.60
2021,06,03,02,12,19.60
2021,06,03,02,13,19.50
2021,06,03,02,14,19.50
2021,06,03,02,15,19.50
2021,06,03,02,16,19.60
2021,06,03,02,17,19.60
2021,06,03,02,18,19.60
2021,06,03,02,19,19.60
2021,06,03,02,20,19.60
2021,06,03,02,21,19.60
2021,06,03,02,22,19.60
2021,06,03,02,23,19.60
2021,06,03,02,24,19.70
2021,06,03,02,25,19.70
2021,06,03,02,26,19.70
2021,06,03,02,27,19.70
2021,06,03,02,28,19.70
2021,06,03,02,29,19.70
2021,06,03,02,30,19.70
2021,06,03,02,31,19.70
2021,06,03,02,32,19.70
2021,06,03,02,33,19.70
2021,06,03,02,34,19.70
2021,06,03,02,35,19.70
2021,06,03,02,36,19.70
2021,06,03,02,37,19.70
2021,06,03,02,38,19.70
2021,06,03,02,39,19.80
2021,06,03,02,40,19.80
2021,06,03,02,41,19.80
2021,06,03,02,42,19.80
2021,06,03,02,43,19.70
2021,06,03,02,44,19.70
2021,06,03,02,45,19.70
2021,06,03,02,46,19.70
2021,06,03,02,47,19.70
2021,06,03,02,48,19.80
2021,06,03,02,49,19.70
2021,06,03,02,50,19.70
2021,06,03,02,51,19.70
2021,06,03,02,52,19.70
2021,06,03,02,53,19.70
2021,06,03,02,54,19.70
2021,06,03,02,55,19.70
2021,06,03,02,56,19.80
2021,06,03,02,57,19.80
2021,06,03,02,58,19.80
2021,06,03,02,59,19.80
2021,06,03,03,00,19.80
2021,06,03,03,01,19.80
2021,06,03,03,02,19.80
2021,06,03,03,03,19.80
2021,06,03,03,04,19.80
2021,06,03,03,05,19.80
2021,06,03,03,06,19.80
2021,06,03,03,07,19.80
2021,06,03,03,08,19.80
2021,06,03,03,09,19.80
2021,06,03,03,10,19.80
2021,06,03,03,11,19.80
2021,06,03,03,12,19.80
2021,06,03,03,13,19.80
2021,06,03,03,14,19.80
2021,06,03,03,15,19.80
2021,06,03,03,16,19.80
2021,06,03,03,17,19.80
2021,06,03,03,18,19.80
2021,06,03,03,19,19.80
2021,06,03,03,20,19.80
2021,06,03,03,21,19.70
2021,06,03,03,22,19.70
2021,06,03,03,23,19.70
2021,06,03,03,24,19.70
2021,06,03,03,25,19.70
2021,06,03,03,26,19.70
2021,06,03,03,27,19.70
2021,06,03,03,28,19.70
2021,06,03,03,29,19.70
2021,06,03,03,30,19.70
2021,06,03,03,31,19.70
2021,06,03,03,32,19.70
2021,06,03,03,33,19.70
2021,06,03,03,34,19.70
2021,06,03,03,35,19.70
2021,06,03,03,36,19.70
2021,06,03,03,37,19.70
2021,06,03,03,38,19.70
2021,06,03,03,39,19.70
2021,06,03,03,40,19.70
2021,06,03,03,41,19.70
2021,06,03,03,42,19.70
2021,06,03,03,43,19.70
2021,06,03,03,44,19.70
2021,06,03,03,45,19.70
2021,06,03,03,46,19.70
2021,06,03,03,47,19.70
2021,06,03,03,48,19.70
2021,06,03,03,49,19.70
2021,06,03,03,50,19.70
2021,06,03,03,51,19.70
2021,06,03,03,52,19.70
2021,06,03,03,53,19.70
2021,06,03,03,54,19.70
2021,06,03,03,55,19.60
2021,06,03,03,56,19.60
2021,06,03,03,57,19.60
2021,06,03,03,58,19.60
2021,06,03,03,59,19.60
2021,06,03,04,00,19.60
2021,06,03,04,01,19.60
2021,06,03,04,02,19.60
2021,06,03,04,03,19.60
2021,06,03,04,04,19.60
2021,06,03,04,05,19.50
2021,06,03,04,06,19.50
2021,06,03,04,07,19.50
2021,06,03,04,08,19.40
2021,06,03,04,09,19.40
2021,06,03,04,10,19.40
2021,06,03,04,11,19.40
2021,06,03,04,12,19.40
2021,06,03,04,13,19.40
2021,06,03,04,14,19.30
2021,06,03,04,15,19.30
2021,06,03,04,16,19.30
2021,06,03,04,17,19.30
2021,06,03,04,18,19.30
2021,06,03,04,19,19.30
2021,06,03,04,20,19.30
2021,06,03,04,21,19.20
2021,06,03,04,22,19.20
2021,06,03,04,23,19.20
2021,06,03,04,24,19.20
2021,06,03,04,25,19.20
2021,06,03,04,26,19.20
2021,06,03,04,27,19.20
2021,06,03,04,28,19.20
2021,06,03,04,29,19.20
2021,06,03,04,30,19.20
2021,06,03,04,31,19.20
2021,06,03,04,32,19.20
2021,06,03,04,33,19.20
2021,06,03,04,34,19.20
2021,06,03,04,35,19.20
2021,06,03,04,36,19.20
2021,06,03,04,37,19.10
2021,06,03,04,38,19.10
2021,06,03,04,39,19.10
2021,06,03,04,40,19.10
2021,06,03,04,41,19.10
2021,06,03,04,42,19.10
2021,06,03,04,43,19.00
2021,06,03,04,44,19.00
2021,06,03,04,45,19.00
2021,06,03,04,46,18.90
2021,06,03,04,47,18.90
2021,06,03,04,48,18.90
2021,06,03,04,49,18.90
2021,06,03,04,50,18.90
2021,06,03,04,51,18.90
2021,06,03,04,52,18.90
2021,06,03,04,53,18.80
2021,06,03,04,54,18.80
2021,06,03,04,55,18.80
2021,06,03,04,56,18.80
2021,06,03,04,57,18.80
2021,06,03,04,58,18.80
2021,06,03,04,59,18.80
2021,06,03,05,00,18.80
2021,06,03,05,01,18.80
2021,06,03,05,02,18.80
2021,06,03,05,03,18.80
2021,06,03,05,04,18.80
2021,06,03,05,05,18.70
2021,06,03,05,06,18.70
2021,06,03,05,07,18.70
2021,06,03,05,08,18.70
2021,06,03,05,09,18.70
2021,06,03,05,10,18.70
2021,06,03,05,11,18.70
2021,06,03,05,12,18.70
2021,06,03,05,13,18.70
2021,06,03,05,14,18.70
2021,06,03,05,15,18.70
2021,06,03,05,16,18.70
2021,06,03,05,17,18.70
2021,06,03,05,18,18.70
2021,06,03,05,19,18.70
2021,06,03,05,20,18.80
2021,06,03,05,21,18.70
2021,06,03,05,22,18.70
2021,06,03,05,23,18.70
2021,06,03,05,24,18.70
2021,06,03,05,25,18.70
2021,06,03,05,26,18.70
2021,06,03,05,27,18.70
2021,06,03,05,28,18.70
2021,06,03,05,29,18.60
2021,06,03,05,30,18.60
2021,06,03,05,31,18.60
2021,06,03,05,32,18.60
2021,06,03,05,33,18.60
2021,06,03,05,34,18.60
2021,06,03,05,35,18.60
2021,06,03,05,36,18.60
2021,06,03,05,37,18.50
2021,06,03,05,38,18.50
2021,06,03,05,39,18.50
2021,06,03,05,40,18.50
2021,06,03,05,41,18.50
2021,06,03,05,42,18.40
2021,06,03,05,43,18.40
2021,06,03,05,44,18.40
2021,06,03,05,45,18.40
2021,06,03,05,46,18.40
2021,06,03,05,47,18.40
2021,06,03,05,48,18.40
2021,06,03,05,49,18.40
2021,06,03,05,50,18.30
2021,06,03,05,51,18.30
2021,06,03,05,52,18.30
2021,06,03,05,53,18.30
2021,06,03,05,54,18.30
2021,06,03,05,55,18.30
2021,06,03,05,56,18.30
2021,06,03,05,57,18.30
2021,06,03,05,58,18.30
2021,06,03,05,59,18.30
2021,06,03,06,00,18.30
2021,06,03,06,01,18.30
2021,06,03,06,02,18.30
2021,06,03,06,03,18.30
2021,06,03,06,04,18.30
2021,06,03,06,05,18.30
2021,06,03,06,06,18.30
2021,06,03,06,07,18.30
2021,06,03,06,08,18.30
2021,06,03,06,09,18.30
2021,06,03,06,10,18.30
2021,06,03,06,11,18.30
2021,06,03,06,12,18.30
2021,06,03,06,13,18.30
2021,06,03,06,14,18.30
2021,06,03,06,15,18.30
2021,06,03,06,16,18.30
2021,06,03,06,17,18.30
2021,06,03,06,18,18.30
2021,06,03,06,19,18.30
2021,06,03,06,20,18.30
2021,06,03,06,21,18.30
2021,06,03,06,22,18.30
2021,06,03,06,23,18.30
2021,06,03,06,24,18.30
2021,06,03,06,25,18.30
2021,06,03,06,26,18.30
2021,06,03,06,27,18.30
2021,06,03,06,28,18.30
2021,06,03,06,29,18.30
2021,06,03,06,30,18.30
2021,06,03,06,31,18.30
2021,06,03,06,32,18.30
2021,06,03,06,33,18.30
2021,06,03,06,34,18.30
2021,06,03,06,35,18.30
2021,06,03,06,36,18.30
2021,06,03,06,37,18.30
2021,06,03,06,38,18.30
2021,06,03,06,39,18.30
2021,06,03,06,40,18.30
2021,06,03,06,41,18.30
2021,06,03,06,42,18.30
2021,06,03,06,43,18.30
2021,06,03,06,44,18.30
2021,06,03,06,45,18.30
2021,06,03,06,46,18.30
2021,06,03,06,47,18.20
2021,06,03,06,48,18.20
2021,06,03,06,49,18.20
2021,06,03,06,50,18.20
2021,06,03,06,51,18.30
2021,06,03,06,52,18.30
2021,06,03,06,53,18.30
2021,06,03,06,54,18.40
2021,06,03,06,55,18.50
2021,06,03,06,56,18.50
2021,06,03,06,57,18.60
2021,06,03,06,58,18.60
2021,06,03,06,59,18.70
2021,06,03,07,00,18.70
2021,06,03,07,01,18.70
2021,06,03,07,02,18.80
2021,06,03,07,03,18.80
2021,06,03,07,04,18.90
2021,06,03,07,05,18.90
2021,06,03,07,06,18.90
2021,06,03,07,07,18.90
2021,06,03,07,08,18.90
2021,06,03,07,09,19.00
2021,06,03,07,10,19.00
2021,06,03,07,11,19.10
2021,06,03,07,12,19.10
2021,06,03,07,13,19.10
2021,06,03,07,14,19.20
2021,06,03,07,15,19.20
2021,06,03,07,16,19.20
2021,06,03,07,17,19.30
2021,06,03,07,18,19.30
2021,06,03,07,19,19.30
2021,06,03,07,20,19.30
2021,06,03,07,21,19.30
2021,06,03,07,22,19.40
2021,06,03,07,23,19.40
2021,06,03,07,24,19.40
2021,06,03,07,25,19.40
2021,06,03,07,26,19.50
2021,06,03,07,27,19.50
2021,06,03,07,28,19.50
2021,06,03,07,29,19.50
2021,06,03,07,30,19.50
2021,06,03,07,31,19.60
2021,06,03,07,32,19.50
2021,06,03,07,33,19.50
2021,06,03,07,34,19.50
2021,06,03,07,35,19.60
2021,06,03,07,36,19.60
2021,06,03,07,37,19.60
2021,06,03,07,38,19.60
2021,06,03,07,39,19.60
2021,06,03,07,40,19.60
2021,06,03,07,41,19.70
2021,06,03,07,42,19.70
2021,06,03,07,43,19.70
2021,06,03,07,44,19.70
2021,06,03,07,45,19.70
2021,06,03,07,46,19.70
2021,06,03,07,47,19.70
2021,06,03,07,48,19.70
2021,06,03,07,49,19.70
2021,06,03,07,50,19.60
2021,06,03,07,51,19.60
2021,06,03,07,52,19.60
2021,06,03,07,53,19.60
2021,06,03,07,54,19.50
2021,06,03,07,55,19.50
2021,06,03,07,56,19.40
2021,06,03,07,57,19.40
2021,06,03,07,58,19.40
2021,06,03,07,59,19.40
2021,06,03,08,00,19.50
2021,06,03,08,01,19.40
2021,06,03,08,02,19.40
2021,06,03,08,03,19.30
2021,06,03,08,04,19.40
2021,06,03,08,05,19.40
2021,06,03,08,06,19.40
2021,06,03,08,07,19.50
2021,06,03,08,08,19.50
2021,06,03,08,09,19.60
2021,06,03,08,10,19.60
2021,06,03,08,11,19.60
2021,06,03,08,12,19.60
2021,06,03,08,13,19.50
2021,06,03,08,14,19.50
2021,06,03,08,15,19.40
2021,06,03,08,16,19.40
2021,06,03,08,17,19.30
2021,06,03,08,18,19.30
2021,06,03,08,19,19.30
2021,06,03,08,20,19.30
2021,06,03,08,21,19.20
2021,06,03,08,22,19.20
2021,06,03,08,23,19.20
2021,06,03,08,24,19.20
2021,06,03,08,25,19.30
2021,06,03,08,26,19.30
2021,06,03,08,27,19.30
2021,06,03,08,28,19.30
2021,06,03,08,29,19.30
2021,06,03,08,30,19.30
2021,06,03,08,31,19.30
2021,06,03,08,32,19.30
2021,06,03,08,33,19.30
2021,06,03,08,34,19.20
2021,06,03,08,35,19.20
2021,06,03,08,36,19.20
2021,06,03,08,37,19.10
2021,06,03,08,38,19.00
2021,06,03,08,39,18.90
2021,06,03,08,40,18.90
2021,06,03,08,41,18.80
2021,06,03,08,42,18.80
2021,06,03,08,43,18.80
2021,06,03,08,44,18.80
2021,06,03,08,45,18.90
2021,06,03,08,46,18.90
2021,06,03,08,47,18.90
2021,06,03,08,48,18.90
2021,06,03,08,49,19.00
2021,06,03,08,50,19.10
2021,06,03,08,51,19.10
2021,06,03,08,52,19.10
2021,06,03,08,53,19.20
2021,06,03,08,54,19.20
2021,06,03,08,55,19.20
2021,06,03,08,56,19.20
2021,06,03,08,57,19.20
2021,06,03,08,58,19.30
2021,06,03,08,59,19.30
2021,06,03,09,00,19.30
2021,06,03,09,01,19.30
2021,06,03,09,02,19.30
2021,06,03,09,03,19.20
2021,06,03,09,04,19.20
2021,06,03,09,05,19.20
2021,06,03,09,06,19.10
2021,06,03,09,07,19.10
2021,06,03,09,08,19.10
2021,06,03,09,09,19.10
2021,06,03,09,10,19.10
2021,06,03,09,11,19.10
2021,06,03,09,12,19.00
2021,06,03,09,13,18.90
2021,06,03,09,14,18.90
2021,06,03,09,15,18.90
2021,06,03,09,16,18.90
2021,06,03,09,17,18.90
2021,06,03,09,18,18.90
2021,06,03,09,19,18.90
2021,06,03,09,20,18.90
2021,06,03,09,21,18.80
2021,06,03,09,22,18.90
2021,06,03,09,23,18.90
2021,06,03,09,24,18.80
2021,06,03,09,25,18.80
2021,06,03,09,26,18.70
2021,06,03,09,27,18.70
2021,06,03,09,28,18.70
2021,06,03,09,29,18.70
2021,06,03,09,30,18.80
2021,06,03,09,31,18.80
2021,06,03,09,32,18.80
2021,06,03,09,33,18.70
2021,06,03,09,34,18.80
2021,06,03,09,35,18.90
2021,06,03,09,36,18.90
2021,06,03,09,37,18.90
2021,06,03,09,38,18.90
2021,06,03,09,39,18.80
2021,06,03,09,40,18.80
2021,06,03,09,41,18.90
2021,06,03,09,42,19.00
2021,06,03,09,43,19.10
2021,06,03,09,44,19.00
2021,06,03,09,45,18.90
2021,06,03,09,46,18.90
2021,06,03,09,47,18.90
2021,06,03,09,48,18.90
2021,06,03,09,49,18.90
2021,06,03,09,50,18.80
2021,06,03,09,51,18.70
2021,06,03,09,52,18.70
2021,06,03,09,53,18.70
2021,06,03,09,54,18.70
2021,06,03,09,55,18.70
2021,06,03,09,56,18.70
2021,06,03,09,57,18.70
2021,06,03,09,58,18.80
2021,06,03,09,59,18.80
2021,06,03,10,00,18.90
2021,06,03,10,01,19.00
2021,06,03,10,02,19.10
2021,06,03,10,03,19.10
2021,06,03,10,04,18.90
2021,06,03,10,05,18.80
2021,06,03,10,06,18.90
2021,06,03,10,07,19.00
2021,06,03,10,08,19.00
2021,06,03,10,09,19.00
2021,06,03,10,10,18.90
2021,06,03,10,11,18.90
2021,06,03,10,12,18.90
2021,06,03,10,13,19.00
2021,06,03,10,14,19.00
2021,06,03,10,15,18.90
2021,06,03,10,16,18.80
2021,06,03,10,17,18.80
2021,06,03,10,18,18.70
2021,06,03,10,19,18.60
2021,06,03,10,20,18.50
2021,06,03,10,21,18.60
2021,06,03,10,22,18.60
2021,06,03,10,23,18.70
2021,06,03,10,24,18.70
2021,06,03,10,25,18.80
2021,06,03,10,26,18.80
2021,06,03,10,27,18.80
2021,06,03,10,28,18.80
2021,06,03,10,29,18.90
2021,06,03,10,30,18.90
2021,06,03,10,31,19.00
2021,06,03,10,32,19.00
2021,06,03,10,33,19.00
2021,06,03,10,34,19.10
2021,06,03,10,35,19.10
2021,06,03,10,36,19.10
2021,06,03,10,37,19.10
2021,06,03,10,38,19.20
2021,06,03,10,39,19.30
2021,06,03,10,40,19.30
2021,06,03,10,41,19.20
2021,06,03,10,42,19.00
2021,06,03,10,43,18.90
2021,06,03,10,44,18.80
2021,06,03,10,45,18.80
2021,06,03,10,46,18.70
2021,06,03,10,47,18.70
2021,06,03,10,48,18.70
2021,06,03,10,49,18.60
2021,06,03,10,50,18.50
2021,06,03,10,51,18.70
2021,06,03,10,52,18.80
2021,06,03,10,53,18.90
2021,06,03,10,54,18.90
2021,06,03,10,55,18.80
2021,06,03,10,56,18.70
2021,06,03,10,57,18.70
2021,06,03,10,58,18.70
2021,06,03,10,59,18.70
2021,06,03,11,00,18.70
2021,06,03,11,01,18.80
2021,06,03,11,02,18.80
2021,06,03,11,03,18.80
2021,06,03,11,04,18.80
2021,06,03,11,05,18.80
2021,06,03,11,06,18.80
2021,06,03,11,07,18.90
2021,06,03,11,08,18.90
2021,06,03,11,09,18.70
2021,06,03,11,10,18.70
2021,06,03,11,11,18.70
2021,06,03,11,12,18.60
2021,06,03,11,13,18.60
2021,06,03,11,14,18.70
2021,06,03,11,15,18.70
2021,06,03,11,16,18.70
2021,06,03,11,17,18.70
2021,06,03,11,18,18.70
2021,06,03,11,19,18.70
2021,06,03,11,20,18.70
2021,06,03,11,21,18.70
2021,06,03,11,22,18.60
2021,06,03,11,23,18.70
2021,06,03,11,24,18.70
2021,06,03,11,25,18.60
2021,06,03,11,26,18.60
2021,06,03,11,27,18.60
2021,06,03,11,28,18.60
2021,06,03,11,29,18.60
2021,06,03,11,30,18.70
2021,06,03,11,31,18.70
2021,06,03,11,32,18.70
2021,06,03,11,33,18.70
2021,06,03,11,34,18.80
2021,06,03,11,35,18.90
2021,06,03,11,36,19.00
2021,06,03,11,37,19.10
2021,06,03,11,38,19.20
2021,06,03,11,39,19.10
2021,06,03,11,40,19.30
2021,06,03,11,41,19.40
2021,06,03,11,42,19.40
2021,06,03,11,43,19.30
2021,06,03,11,44,19.40
2021,06,03,11,45,19.40
2021,06,03,11,46,19.40
2021,06,03,11,47,19.50
2021,06,03,11,48,19.50
2021,06,03,11,49,19.30
2021,06,03,11,50,19.20
2021,06,03,11,51,19.20
2021,06,03,11,52,19.20
2021,06,03,11,53,19.30
2021,06,03,11,54,19.30
2021,06,03,11,55,19.30
2021,06,03,11,56,19.20
2021,06,03,11,57,19.20
2021,06,03,11,58,19.10
2021,06,03,11,59,19.00
2021,06,03,12,00,18.90
2021,06,03,12,01,18.90
2021,06,03,12,02,18.80
2021,06,03,12,03,18.80
2021,06,03,12,04,18.80
2021,06,03,12,05,18.80
2021,06,03,12,06,18.80
2021,06,03,12,07,19.00
2021,06,03,12,08,19.10
2021,06,03,12,09,19.10
2021,06,03,12,10,19.20
2021,06,03,12,11,19.30
2021,06,03,12,12,19.20
2021,06,03,12,13,19.10
2021,06,03,12,14,19.10
2021,06,03,12,15,19.10
2021,06,03,12,16,19.10
2021,06,03,12,17,19.20
2021,06,03,12,18,19.20
2021,06,03,12,19,19.20
2021,06,03,12,20,19.20
2021,06,03,12,21,19.30
2021,06,03,12,22,19.40
2021,06,03,12,23,19.30
2021,06,03,12,24,19.30
2021,06,03,12,25,19.30
2021,06,03,12,26,19.30
2021,06,03,12,27,19.40
2021,06,03,12,28,19.40
2021,06,03,12,29,19.60
2021,06,03,12,30,19.50
2021,06,03,12,31,19.50
2021,06,03,12,32,19.50
2021,06,03,12,33,19.40
2021,06,03,12,34,19.50
2021,06,03,12,35,19.40
2021,06,03,12,36,19.40
2021,06,03,12,37,19.40
2021,06,03,12,38,19.30
2021,06,03,12,39,19.40
2021,06,03,12,40,19.30
2021,06,03,12,41,19.30
2021,06,03,12,42,19.40
2021,06,03,12,43,19.40
2021,06,03,12,44,19.40
2021,06,03,12,45,19.30
2021,06,03,12,46,19.40
2021,06,03,12,47,19.40
2021,06,03,12,48,19.40
2021,06,03,12,49,19.50
2021,06,03,12,50,19.60
2021,06,03,12,51,19.60
2021,06,03,12,52,19.60
2021,06,03,12,53,19.60
2021,06,03,12,54,19.60
2021,06,03,12,55,19.70
2021,06,03,12,56,19.70
2021,06,03,12,57,19.70
2021,06,03,12,58,19.70
2021,06,03,12,59,19.80
2021,06,03,13,00,19.90
2021,06,03,13,01,20.00
2021,06,03,13,02,20.10
2021,06,03,13,03,20.10
2021,06,03,13,04,20.20
2021,06,03,13,05,20.10
2021,06,03,13,06,20.10
2021,06,03,13,07,20.00
2021,06,03,13,08,20.00
2021,06,03,13,09,20.00
2021,06,03,13,10,19.90
2021,06,03,13,11,20.00
2021,06,03,13,12,20.00
2021,06,03,13,13,20.10
2021,06,03,13,14,20.20
2021,06,03,13,15,20.20
2021,06,03,13,16,20.40
2021,06,03,13,17,20.40
2021,06,03,13,18,20.30
2021,06,03,13,19,20.30
2021,06,03,13,20,20.30
2021,06,03,13,21,20.20
2021,06,03,13,22,20.30
2021,06,03,13,23,20.30
2021,06,03,13,24,20.20
2021,06,03,13,25,20.20
2021,06,03,13,26,20.20
2021,06,03,13,27,20.20
2021,06,03,13,28,20.10
2021,06,03,13,29,20.10
2021,06,03,13,30,20.20
2021,06,03,13,31,20.30
2021,06,03,13,32,20.40
2021,06,03,13,33,20.40
2021,06,03,13,34,20.40
2021,06,03,13,35,20.30
2021,06,03,13,36,20.40
2021,06,03,13,37,20.40
2021,06,03,13,38,20.40
2021,06,03,13,39,20.40
2021,06,03,13,40,20.50
2021,06,03,13,41,20.60
2021,06,03,13,42,20.60
2021,06,03,13,43,20.60
2021,06,03,13,44,20.60
2021,06,03,13,45,20.60
2021,06,03,13,46,20.60
2021,06,03,13,47,20.60
2021,06,03,13,48,20.60
2021,06,03,13,49,20.60
2021,06,03,13,50,20.50
2021,06,03,13,51,20.50
2021,06,03,13,52,20.50
2021,06,03,13,53,20.40
2021,06,03,13,54,20.40
2021,06,03,13,55,20.30
2021,06,03,13,56,20.30
2021,06,03,13,57,20.20
2021,06,03,13,58,20.10
2021,06,03,13,59,20.10
2021,06,03,14,00,20.20
2021,06,03,14,01,20.20
2021,06,03,14,02,20.20
2021,06,03,14,03,20.10
2021,06,03,14,04,20.20
2021,06,03,14,05,20.30
2021,06,03,14,06,20.50
2021,06,03,14,07,20.50
2021,06,03,14,08,20.50
2021,06,03,14,09,20.60
2021,06,03,14,10,20.60
2021,06,03,14,11,20.70
2021,06,03,14,12,20.70
2021,06,03,14,13,20.60
2021,06,03,14,14,20.60
2021,06,03,14,15,20.60
2021,06,03,14,16,20.60
2021,06,03,14,17,20.70
2021,06,03,14,18,20.70
2021,06,03,14,19,20.70
2021,06,03,14,20,20.70
2021,06,03,14,21,20.60
2021,06,03,14,22,20.70
2021,06,03,14,23,20.60
2021,06,03,14,24,20.70
2021,06,03,14,25,20.80
2021,06,03,14,26,20.90
2021,06,03,14,27,20.90
2021,06,03,14,28,20.90
2021,06,03,14,29,21.00
2021,06,03,14,30,21.10
2021,06,03,14,31,21.10
2021,06,03,14,32,21.10
2021,06,03,14,33,21.20
2021,06,03,14,34,21.20
2021,06,03,14,35,21.20
2021,06,03,14,36,21.20
2021,06,03,14,37,21.20
2021,06,03,14,38,21.30
2021,06,03,14,39,21.30
2021,06,03,14,40,21.40
2021,06,03,14,41,21.40
2021,06,03,14,42,21.40
2021,06,03,14,43,21.40
2021,06,03,14,44,21.50
2021,06,03,14,45,21.60
2021,06,03,14,46,21.70
2021,06,03,14,47,21.70
2021,06,03,14,48,21.80
2021,06,03,14,49,21.80
2021,06,03,14,50,21.70
2021,06,03,14,51,21.60
2021,06,03,14,52,21.60
2021,06,03,14,53,21.70
2021,06,03,14,54,21.70
2021,06,03,14,55,21.70
2021,06,03,14,56,21.80
2021,06,03,14,57,21.80
2021,06,03,14,58,21.80
2021,06,03,14,59,21.80
2021,06,03,15,00,22.00
2021,06,03,15,01,22.20
2021,06,03,15,02,22.20
2021,06,03,15,03,22.20
2021,06,03,15,04,22.30
2021,06,03,15,05,22.30
2021,06,03,15,06,22.10
2021,06,03,15,07,22.10
2021,06,03,15,08,22.10
2021,06,03,15,09,22.10
2021,06,03,15,10,22.10
2021,06,03,15,11,22.00
2021,06,03,15,12,22.00
2021,06,03,15,13,22.00
2021,06,03,15,14,22.00
2021,06,03,15,15,22.00
2021,06,03,15,16,21.70
2021,06,03,15,17,21.60
2021,06,03,15,18,21.60
2021,06,03,15,19,21.60
2021,06,03,15,20,21.60
2021,06,03,15,21,21.60
2021,06,03,15,22,21.70
2021,06,03,15,23,21.90
2021,06,03,15,24,22.00
2021,06,03,15,25,21.90
2021,06,03,15,26,21.80
2021,06,03,15,27,21.90
2021,06,03,15,28,21.80
2021,06,03,15,29,21.80
2021,06,03,15,30,21.70
2021,06,03,15,31,21.70
2021,06,03,15,32,21.80
2021,06,03,15,33,21.70
2021,06,03,15,34,21.70
2021,06,03,15,35,21.70
2021,06,03,15,36,21.70
2021,06,03,15,37,21.80
2021,06,03,15,38,21.90
2021,06,03,15,39,21.80
2021,06,03,15,40,21.80
2021,06,03,15,41,21.80
2021,06,03,15,42,21.80
2021,06,03,15,43,21.80
2021,06,03,15,44,21.70
2021,06,03,15,45,21.60
2021,06,03,15,46,21.70
2021,06,03,15,47,21.60
2021,06,03,15,48,21.60
2021,06,03,15,49,21.60
2021,06,03,15,50,21.60
2021,06,03,15,51,21.60
2021,06,03,15,52,21.60
2021,06,03,15,53,21.60
2021,06,03,15,54,21.60
2021,06,03,15,55,21.70
2021,06,03,15,56,21.80
2021,06,03,15,57,21.80
2021,06,03,15,58,21.90
2021,06,03,15,59,22.00
2021,06,03,16,00,22.10
2021,06,03,16,01,22.10
2021,06,03,16,02,22.10
2021,06,03,16,03,22.00
2021,06,03,16,04,22.10
2021,06,03,16,05,22.10
2021,06,03,16,06,22.00
2021,06,03,16,07,22.00
2021,06,03,16,08,22.00
2021,06,03,16,09,22.00
2021,06,03,16,10,22.00
2021,06,03,16,11,22.00
2021,06,03,16,12,22.00
2021,06,03,16,13,22.10
2021,06,03,16,14,22.10
2021,06,03,16,15,22.10
2021,06,03,16,16,22.10
2021,06,03,16,17,22.10
2021,06,03,16,18,22.10
2021,06,03,16,19,22.20
2021,06,03,16,20,22.30
2021,06,03,16,21,22.30
2021,06,03,16,22,22.20
2021,06,03,16,23,22.20
2021,06,03,16,24,22.20
2021,06,03,16,25,22.20
2021,06,03,16,26,22.20
2021,06,03,16,27,22.30
2021,06,03,16,28,22.50
2021,06,03,16,29,22.60
2021,06,03,16,30,22.60
2021,06,03,16,31,22.60
2021,06,03,16,32,22.60
2021,06,03,16,33,22.60
2021,06,03,16,34,22.70
2021,06,03,16,35,22.80
2021,06,03,16,36,22.80
2021,06,03,16,37,22.80
2021,06,03,16,38,22.80
2021,06,03,16,39,22.80
2021,06,03,16,40,22.80
2021,06,03,16,41,22.80
2021,06,03,16,42,22.80
2021,06,03,16,43,22.70
2021,06,03,16,44,22.80
2021,06,03,16,45,22.80
2021,06,03,16,46,22.80
2021,06,03,16,47,22.80
2021,06,03,16,48,22.90
2021,06,03,16,49,22.80
2021,06,03,16,50,22.80
2021,06,03,16,51,22.90
2021,06,03,16,52,23.00
2021,06,03,16,53,23.10
2021,06,03,16,54,23.10
2021,06,03,16,55,23.20
2021,06,03,16,56,23.20
2021,06,03,16,57,23.20
2021,06,03,16,58,23.20
2021,06,03,16,59,23.20
2021,06,03,17,00,23.30
2021,06,03,17,01,23.30
2021,06,03,17,02,23.40
2021,06,03,17,03,23.40
2021,06,03,17,04,23.40
2021,06,03,17,05,23.40
2021,06,03,17,06,23.20
2021,06,03,17,07,23.20
2021,06,03,17,08,23.10
2021,06,03,17,09,23.10
2021,06,03,17,10,23.10
2021,06,03,17,11,23.10
2021,06,03,17,12,23.10
2021,06,03,17,13,23.10
2021,06,03,17,14,23.10
2021,06,03,17,15,23.10
2021,06,03,17,16,23.20
2021,06,03,17,17,23.30
2021,06,03,17,18,23.40
2021,06,03,17,19,23.50